Weather History for KAOH - January, 2014

Change the Weather History Date:

Sunday, January 5, 2014

  Actual Average (KFDY) Record (KFDY)
Temperature  
Mean Temperature 30 °F -  
Max Temperature 36 °F 31 °F 59 °F (1955)
Min Temperature 21 °F 17 °F -10 °F (1981)
Degree Days  
Heating Degree Days 36    
Moisture  
Dew Point 26 °F    
Average Humidity 83    
Maximum Humidity 92    
Minimum Humidity 57    
Precipitation  
Precipitation 0.64 in - - ()
Sea Level Pressure  
Sea Level Pressure 29.71 in    
Wind  
Wind Speed 9 mph (NE)    
Max Wind Speed 23 mph    
Max Gust Speed 34 mph    
Visibility 4 miles    
Events Rain , Snow    
Averages and records for this station are not official NWS values.
T = Trace of Precipitation, MM = Missing Value Source: NWS Daily Summary

Daily Weather History Graph

Daily Weather History Graph

Search for Another Location

Airport or City:

Trip Planner

Search our weather history database for the weather conditions in past years. The results will help you decide how hot, cold, wet, or windy it might be!

Date:

Astronomy

Jan. 05, 2014 Rise Set
Actual Time 8:00 AM EST 5:23 PM EST
Civil Twilight 7:29 AM EST 5:53 PM EST
Nautical Twilight 6:55 AM EST 6:27 PM EST
Astronomical Twilight 6:22 AM EST 7:01 PM EST
Moon 10:39 AM EST (1/5) 10:51 PM EST (1/5)
Length of Visible Light 10h 24m
Length of Day
9h 22m
Waxing Crescent, 24% of the Moon is Illuminated
Jan 5
Waxing Crescent
Jan 7
First Quarter
Jan 15
Full
Jan 24
Last Quarter
Jan 30
New

Hourly Weather History & Observations

Time (EST) Temp. Windchill Dew Point Humidity Pressure Visibility Wind Dir Wind Speed Gust Speed Precip Events Conditions
12:53 AM 36.0 °F 29.6 °F 21.9 °F 57% 30.05 in 10.0 mi SSW 8.1 mph - N/A   Overcast
1:53 AM 35.1 °F 29.3 °F 26.1 °F 70% 30.05 in 10.0 mi West 6.9 mph - N/A   Overcast
2:53 AM 35.1 °F 28.6 °F 24.1 °F 64% 30.05 in 10.0 mi SSW 8.1 mph - N/A   Overcast
3:53 AM 33.1 °F 30.0 °F 28.0 °F 82% 30.05 in 8.0 mi WSW 3.5 mph - 0.00 in   Overcast
4:53 AM 34.0 °F 27.2 °F 27.0 °F 75% 30.00 in 7.0 mi SSE 8.1 mph - N/A   Overcast
5:53 AM 33.1 °F 26.1 °F 27.0 °F 78% 30.01 in 10.0 mi South 8.1 mph - N/A   Overcast
6:53 AM 32.0 °F 24.2 °F 28.0 °F 85% 30.00 in 10.0 mi SSE 9.2 mph - N/A   Overcast
7:53 AM 32.0 °F 23.6 °F 28.9 °F 88% 30.01 in 10.0 mi SSE 10.4 mph - N/A   Overcast
8:53 AM 33.1 °F 26.9 °F 28.9 °F 85% 30.00 in 8.0 mi SSE 6.9 mph - N/A   Overcast
9:53 AM 34.0 °F 25.0 °F 27.0 °F 75% 29.97 in 10.0 mi SSE 12.7 mph - N/A   Overcast
10:29 AM 33.8 °F 27.7 °F 26.6 °F 75% 29.93 in 10.0 mi SE 6.9 mph - N/A   Overcast
10:40 AM 33.8 °F 25.8 °F 26.6 °F 75% 29.91 in 9.0 mi SE 10.4 mph - N/A   Overcast
10:53 AM 34.0 °F 27.2 °F 27.0 °F 75% 29.92 in 9.0 mi ESE 8.1 mph - N/A   Overcast
11:19 AM 33.8 °F 30.8 °F 28.4 °F 81% 29.88 in 9.0 mi SE 3.5 mph - N/A   Overcast
11:50 AM 33.8 °F 28.6 °F 28.4 °F 81% 29.84 in 3.0 mi East 5.8 mph - 0.00 in Snow Light Snow
11:53 AM 33.1 °F 27.7 °F 28.9 °F 85% 29.86 in 2.0 mi East 5.8 mph - 0.00 in Snow Light Snow
12:00 PM 33.8 °F 28.6 °F 28.4 °F 81% 29.83 in 1.2 mi East 5.8 mph - 0.00 in Snow Light Snow
12:53 PM 32.0 °F 24.8 °F 28.9 °F 88% 29.78 in 1.2 mi ENE 8.1 mph - 0.03 in Snow Light Snow
1:53 PM 33.1 °F 26.1 °F 28.9 °F 85% 29.73 in 1.5 mi ENE 8.1 mph - 0.07 in Snow Light Snow
2:03 PM 33.8 °F 27.0 °F 30.2 °F 87% 29.69 in 2.5 mi ENE 8.1 mph - 0.01 in Snow Light Snow
2:46 PM 33.8 °F 28.6 °F 30.2 °F 87% 29.67 in 1.8 mi ENE 5.8 mph - 0.07 in Snow Light Snow
2:53 PM 33.1 °F 26.9 °F 30.0 °F 89% 29.70 in 1.5 mi ENE 6.9 mph - 0.08 in Snow Light Snow
3:19 PM 33.8 °F 25.3 °F 30.2 °F 87% 29.64 in 3.0 mi East 11.5 mph - 0.05 in Rain Light Rain
3:26 PM 33.8 °F 25.3 °F 30.2 °F 87% 29.64 in 4.0 mi East 11.5 mph - 0.06 in Rain Light Rain
3:34 PM 33.8 °F 27.7 °F 30.2 °F 87% 29.64 in 4.0 mi East 6.9 mph - 0.07 in Rain Rain
3:53 PM 34.0 °F 26.6 °F 30.9 °F 89% 29.66 in 4.0 mi East 9.2 mph - 0.10 in Rain Light Rain
4:24 PM 33.8 °F - 30.2 °F 87% 29.63 in 2.5 mi Calm Calm - 0.06 in Snow Light Snow
4:35 PM 33.8 °F 27.0 °F 30.2 °F 87% 29.62 in 3.0 mi ENE 8.1 mph - 0.09 in Rain Rain
4:53 PM 34.0 °F 28.8 °F 30.9 °F 89% 29.63 in 3.0 mi East 5.8 mph - 0.12 in Rain Rain
5:18 PM 33.8 °F 28.6 °F 30.2 °F 87% 29.58 in 3.0 mi East 5.8 mph - 0.04 in Rain Light Rain
5:53 PM 35.1 °F 31.0 °F 32.0 °F 89% 29.60 in 4.0 mi SE 4.6 mph - 0.09 in Rain Rain
6:06 PM 35.6 °F 29.9 °F 32.0 °F 87% 29.56 in 5.0 mi SSE 6.9 mph - 0.03 in Rain Rain
6:46 PM 33.8 °F 28.6 °F 30.2 °F 87% 29.53 in 2.0 mi North 5.8 mph - 0.05 in Snow Light Snow
6:48 PM 33.8 °F 27.7 °F 30.2 °F 87% 29.53 in 1.8 mi North 6.9 mph - 0.05 in Snow Light Snow
6:53 PM 33.1 °F 26.9 °F 30.9 °F 92% 29.55 in 1.5 mi North 6.9 mph - 0.06 in Snow Light Snow
7:09 PM 33.8 °F 25.8 °F 30.2 °F 87% 29.51 in 1.5 mi North 10.4 mph - 0.01 in Snow Light Snow
7:51 PM 30.2 °F 19.8 °F 26.6 °F 86% 29.51 in 1.0 mi North 13.8 mph - 0.05 in Snow Light Snow
7:53 PM 30.0 °F 19.5 °F 27.0 °F 88% 29.54 in 1.2 mi North 13.8 mph - 0.05 in Snow Light Snow
8:53 PM 30.0 °F 19.5 °F 27.0 °F 88% 29.52 in 1.2 mi North 13.8 mph - 0.02 in Snow Light Snow
9:08 PM 26.6 °F 13.4 °F 23.0 °F 86% 29.50 in 0.8 mi NNW 18.4 mph - 0.00 in Snow Light Snow
9:34 PM 26.6 °F 15.2 °F 21.2 °F 80% 29.51 in 1.0 mi NNW 13.8 mph - 0.01 in Snow Light Snow
9:45 PM 24.8 °F 11.5 °F 21.2 °F 86% 29.50 in 0.8 mi NNW 17.3 mph 23.0 mph 0.01 in Snow Light Snow
9:53 PM 25.0 °F 12.6 °F 21.0 °F 85% 29.55 in 1.0 mi NW 15.0 mph 24.2 mph 0.02 in Snow Light Snow
10:22 PM 24.8 °F 11.5 °F 19.4 °F 80% 29.53 in 1.2 mi NW 17.3 mph 26.5 mph 0.00 in Snow Light Snow
10:31 PM 24.8 °F 9.6 °F 19.4 °F 80% 29.54 in 1.5 mi NW 23.0 mph 28.8 mph 0.00 in Snow Light Snow
10:51 PM 24.8 °F 9.6 °F 19.4 °F 80% 29.55 in 1.0 mi NW 23.0 mph 31.1 mph 0.00 in Snow Light Snow
10:53 PM 24.1 °F 9.8 °F 19.9 °F 84% 29.58 in 1.0 mi NW 19.6 mph 31.1 mph 0.00 in Snow Light Snow
11:04 PM 23.0 °F 9.6 °F 19.4 °F 86% 29.54 in 1.8 mi NW 16.1 mph 26.5 mph 0.00 in Snow Light Snow
11:08 PM 23.0 °F 8.0 °F 19.4 °F 86% 29.56 in 2.5 mi NW 20.7 mph 25.3 mph 0.00 in Snow Light Snow
11:16 PM 23.0 °F 7.2 °F 19.4 °F 86% 29.57 in 4.0 mi NW 23.0 mph - 0.00 in Snow Light Snow
11:28 PM 23.0 °F 7.2 °F 17.6 °F 80% 29.58 in 5.0 mi WNW 23.0 mph 29.9 mph 0.00 in   Overcast
11:53 PM 21.9 °F 5.8 °F 17.1 °F 82% 29.64 in 5.0 mi NW 23.0 mph 34.5 mph 0.00 in   Overcast